EXPRESS AMU-3

Last updated on Thu Sep 11 2025 00:02:50 GMT+0000 (Coordinated Universal Time)

1 50002U 21123B 25252.74437271 -.00000323 00000+0 00000+0 0 9994 2 50002 0.0212 231.1436 0000356 217.7261 271.1463 1.00271233 4225
UTC large
Height (km)
Speed (km/s)
/
Latitude / Longitude
Inclination (degrees)
Orbital Period (minutes)
Azimuth
Elevation
Range (km)
Doppler Factor

Next 0 passes for location: London (51.5072 / 0.1276)

Sorry there are no passes over London.